owner,sensor,date,latitude,longitude,vertical_datum,wind_speed,wind_to_direction,wind_speed_of_gust,qcFlag 
DISL,ioos:station:DISL:MHPA:1,2010-12-02T00:00:00Z,30.6671,-87.9365,8.5,2.23,315.1,-9999.0,'1111122,1111122,1111122' 
DISL,ioos:station:DISL:MHPA:1,2010-12-02T00:30:00Z,30.6671,-87.9365,8.5,2.06,313.0,-9999.0,'1111122,1111122,1111122' 
DISL,ioos:station:DISL:MHPA:1,2010-12-02T01:00:00Z,30.6671,-87.9365,8.5,0.76,356.9,-9999.0,'1111122,1111122,1111122' 
DISL,ioos:station:DISL:MHPA:1,2010-12-02T01:30:00Z,30.6671,-87.9365,8.5,1.16,39.14,-9999.0,'1111122,1111122,1111122' 
DISL,ioos:station:DISL:MHPA:1,2010-12-02T02:00:00Z,30.6671,-87.9365,8.5,0.75,42.29,-9999.0,'1111122,1111122,1111122' 
DISL,ioos:station:DISL:MHPA:1,2010-12-02T02:30:00Z,30.6671,-87.9365,8.5,0.52,66.96,-9999.0,'1111122,1111122,1111122' 
DISL,ioos:station:DISL:MHPA:1,2010-12-02T03:00:00Z,30.6671,-87.9365,8.5,0.35,75.0,-9999.0,'1111122,1111122,1111122' 
DISL,ioos:station:DISL:MHPA:1,2010-12-02T03:30:00Z,30.6671,-87.9365,8.5,0.1,54.42,-9999.0,'1111122,1111122,1111122' 
DISL,ioos:station:DISL:MHPA:1,2010-12-02T04:00:00Z,30.6671,-87.9365,8.5,0.71,38.79,-9999.0,'1111122,1111122,1111122' 
DISL,ioos:station:DISL:MHPA:1,2010-12-02T04:30:00Z,30.6671,-87.9365,8.5,0.43,76.4,-9999.0,'1111122,1111122,1111122' 
DISL,ioos:station:DISL:MHPA:1,2010-12-02T05:00:00Z,30.6671,-87.9365,8.5,0.47,80.0,-9999.0,'1111122,1111122,1111122' 
DISL,ioos:station:DISL:MHPA:1,2010-12-02T05:30:00Z,30.6671,-87.9365,8.5,0.52,42.82,-9999.0,'1111122,1111122,1111122' 
DISL,ioos:station:DISL:MHPA:1,2010-12-02T06:00:00Z,30.6671,-87.9365,8.5,0.89,29.35,-9999.0,'1111122,1111122,1111122' 
DISL,ioos:station:DISL:MHPA:1,2010-12-02T06:30:00Z,30.6671,-87.9365,8.5,1.05,31.47,-9999.0,'1111122,1111122,1111122' 
DISL,ioos:station:DISL:MHPA:1,2010-12-02T07:00:00Z,30.6671,-87.9365,8.5,1.28,27.53,-9999.0,'1111122,1111122,1111122' 
DISL,ioos:station:DISL:MHPA:1,2010-12-02T07:30:00Z,30.6671,-87.9365,8.5,1.43,27.12,-9999.0,'1111122,1111122,1111122' 
DISL,ioos:station:DISL:MHPA:1,2010-12-02T08:00:00Z,30.6671,-87.9365,8.5,1.41,9.8,-9999.0,'1111122,1111122,1111122' 
DISL,ioos:station:DISL:MHPA:1,2010-12-02T08:30:00Z,30.6671,-87.9365,8.5,0.92,17.82,-9999.0,'1111122,1111122,1111122' 
DISL,ioos:station:DISL:MHPA:1,2010-12-02T09:00:00Z,30.6671,-87.9365,8.5,1.1,15.25,-9999.0,'1111122,1111122,1111122' 
DISL,ioos:station:DISL:MHPA:1,2010-12-02T09:30:00Z,30.6671,-87.9365,8.5,0.77,46.8,-9999.0,'1111122,1111122,1111122' 
DISL,ioos:station:DISL:MHPA:1,2010-12-02T10:00:00Z,30.6671,-87.9365,8.5,0.49,49.18,-9999.0,'1111122,1111122,1111122' 
DISL,ioos:station:DISL:MHPA:1,2010-12-02T10:30:00Z,30.6671,-87.9365,8.5,0.46,40.29,-9999.0,'1111122,1111122,1111122' 
DISL,ioos:station:DISL:MHPA:1,2010-12-02T11:00:00Z,30.6671,-87.9365,8.5,0.68,17.48,-9999.0,'1111122,1111122,1111122' 
DISL,ioos:station:DISL:MHPA:1,2010-12-02T11:30:00Z,30.6671,-87.9365,8.5,0.2,57.56,-9999.0,'1111122,1111122,1111122' 
DISL,ioos:station:DISL:MHPA:1,2010-12-02T12:00:00Z,30.6671,-87.9365,8.5,1.16,9.12,-9999.0,'1111122,1111122,1111122' 
DISL,ioos:station:DISL:MHPA:1,2010-12-02T12:30:00Z,30.6671,-87.9365,8.5,1.31,25.66,-9999.0,'1111122,1111122,1111122' 
DISL,ioos:station:DISL:MHPA:1,2010-12-02T13:00:00Z,30.6671,-87.9365,8.5,1.02,17.61,-9999.0,'1111122,1111122,1111122' 
DISL,ioos:station:DISL:MHPA:1,2010-12-02T13:30:00Z,30.6671,-87.9365,8.5,1.19,11.71,-9999.0,'1111122,1111122,1111122' 
DISL,ioos:station:DISL:MHPA:1,2010-12-02T14:00:00Z,30.6671,-87.9365,8.5,1.16,11.12,-9999.0,'1111122,1111122,1111122' 
DISL,ioos:station:DISL:MHPA:1,2010-12-02T14:30:00Z,30.6671,-87.9365,8.5,1.4,350.3,-9999.0,'1111122,1111122,1111122' 
DISL,ioos:station:DISL:MHPA:1,2010-12-02T15:00:00Z,30.6671,-87.9365,8.5,0.85,348.7,-9999.0,'1111122,1111122,1111122' 
DISL,ioos:station:DISL:MHPA:1,2010-12-02T15:30:00Z,30.6671,-87.9365,8.5,1.2,313.8,-9999.0,'1111122,1111122,1111122' 
DISL,ioos:station:DISL:MHPA:1,2010-12-02T16:00:00Z,30.6671,-87.9365,8.5,1.49,241.6,-9999.0,'1111122,1111122,1111122' 
DISL,ioos:station:DISL:MHPA:1,2010-12-02T16:30:00Z,30.6671,-87.9365,8.5,1.36,224.8,-9999.0,'1111122,1111122,1111122' 
DISL,ioos:station:DISL:MHPA:1,2010-12-02T17:00:00Z,30.6671,-87.9365,8.5,1.92,215.8,-9999.0,'1111122,1111122,1111122' 
DISL,ioos:station:DISL:MHPA:1,2010-12-02T17:30:00Z,30.6671,-87.9365,8.5,1.76,228.0,-9999.0,'1111122,1111122,1111122' 
DISL,ioos:station:DISL:MHPA:1,2010-12-02T18:00:00Z,30.6671,-87.9365,8.5,1.81,220.2,-9999.0,'1111122,1111122,1111122' 
DISL,ioos:station:DISL:MHPA:1,2010-12-02T18:30:00Z,30.6671,-87.9365,8.5,2.04,202.2,-9999.0,'1111122,1111122,1111122' 
DISL,ioos:station:DISL:MHPA:1,2010-12-02T19:00:00Z,30.6671,-87.9365,8.5,2.3,199.0,-9999.0,'1111122,1111122,1111122' 
DISL,ioos:station:DISL:MHPA:1,2010-12-02T19:30:00Z,30.6671,-87.9365,8.5,2.23,200.8,-9999.0,'1111122,1111122,1111122' 
DISL,ioos:station:DISL:MHPA:1,2010-12-02T20:00:00Z,30.6671,-87.9365,8.5,2.66,185.8,-9999.0,'1111122,1111122,1111122' 
DISL,ioos:station:DISL:MHPA:1,2010-12-02T20:30:00Z,30.6671,-87.9365,8.5,1.98,200.4,-9999.0,'1111122,1111122,1111122' 
DISL,ioos:station:DISL:MHPA:1,2010-12-02T21:00:00Z,30.6671,-87.9365,8.5,1.89,223.6,-9999.0,'1111122,1111122,1111122' 
DISL,ioos:station:DISL:MHPA:1,2010-12-02T21:30:00Z,30.6671,-87.9365,8.5,2.74,209.7,-9999.0,'1111122,1111122,1111122' 
DISL,ioos:station:DISL:MHPA:1,2010-12-02T22:00:00Z,30.6671,-87.9365,8.5,3.11,195.7,-9999.0,'1111122,1111122,1111122' 
DISL,ioos:station:DISL:MHPA:1,2010-12-02T22:30:00Z,30.6671,-87.9365,8.5,3.12,204.7,-9999.0,'1111122,1111122,1111122' 
DISL,ioos:station:DISL:MHPA:1,2010-12-02T23:00:00Z,30.6671,-87.9365,8.5,3.58,204.8,-9999.0,'1111122,1111122,1111122' 
DISL,ioos:station:DISL:MHPA:1,2010-12-02T23:30:00Z,30.6671,-87.9365,8.5,3.04,207.0,-9999.0,'1111122,1111122,1111122' 
DISL,ioos:station:DISL:MHPA:1,2010-12-03T00:00:00Z,30.6671,-87.9365,8.5,3.59,213.1,-9999.0,'1111122,1111122,1111122' 
DISL,ioos:station:DISL:MHPA:1,2010-12-03T00:30:00Z,30.6671,-87.9365,8.5,3.75,218.1,-9999.0,'1111122,1111122,1111122' 
DISL,ioos:station:DISL:MHPA:1,2010-12-03T01:00:00Z,30.6671,-87.9365,8.5,3.26,214.3,-9999.0,'1111122,1111122,1111122' 
DISL,ioos:station:DISL:MHPA:1,2010-12-03T01:30:00Z,30.6671,-87.9365,8.5,3.39,225.8,-9999.0,'1111122,1111122,1111122' 
DISL,ioos:station:DISL:MHPA:1,2010-12-03T02:00:00Z,30.6671,-87.9365,8.5,3.42,238.4,-9999.0,'1111122,1111122,1111122' 
DISL,ioos:station:DISL:MHPA:1,2010-12-03T02:30:00Z,30.6671,-87.9365,8.5,3.23,252.9,-9999.0,'1111122,1111122,1111122' 
DISL,ioos:station:DISL:MHPA:1,2010-12-03T03:00:00Z,30.6671,-87.9365,8.5,3.31,264.5,-9999.0,'1111122,1111122,1111122' 
DISL,ioos:station:DISL:MHPA:1,2010-12-03T03:30:00Z,30.6671,-87.9365,8.5,1.43,281.0,-9999.0,'1111122,1111122,1111122' 
DISL,ioos:station:DISL:MHPA:1,2010-12-03T04:00:00Z,30.6671,-87.9365,8.5,0.59,65.99,-9999.0,'1111122,1111122,1111122' 
DISL,ioos:station:DISL:MHPA:1,2010-12-03T04:30:00Z,30.6671,-87.9365,8.5,0.94,107.7,-9999.0,'1111122,1111122,1111122' 
DISL,ioos:station:DISL:MHPA:1,2010-12-03T05:00:00Z,30.6671,-87.9365,8.5,1.4,127.5,-9999.0,'1111122,1111122,1111122' 
DISL,ioos:station:DISL:MHPA:1,2010-12-03T05:30:00Z,30.6671,-87.9365,8.5,1.09,112.8,-9999.0,'1111122,1111122,1111122' 
DISL,ioos:station:DISL:MHPA:1,2010-12-03T06:00:00Z,30.6671,-87.9365,8.5,1.4,150.0,-9999.0,'1111122,1111122,1111122' 
DISL,ioos:station:DISL:MHPA:1,2010-12-03T06:30:00Z,30.6671,-87.9365,8.5,2.32,175.0,-9999.0,'1111122,1111122,1111122' 
DISL,ioos:station:DISL:MHPA:1,2010-12-03T07:00:00Z,30.6671,-87.9365,8.5,0.48,117.4,-9999.0,'1111122,1111122,1111122' 
DISL,ioos:station:DISL:MHPA:1,2010-12-03T07:30:00Z,30.6671,-87.9365,8.5,1.4,281.6,-9999.0,'1111122,1111122,1111122' 
DISL,ioos:station:DISL:MHPA:1,2010-12-03T08:00:00Z,30.6671,-87.9365,8.5,0.92,56.93,-9999.0,'1111122,1111122,1111122' 
DISL,ioos:station:DISL:MHPA:1,2010-12-03T08:30:00Z,30.6671,-87.9365,8.5,0.45,79.3,-9999.0,'1111122,1111122,1111122' 
DISL,ioos:station:DISL:MHPA:1,2010-12-03T09:00:00Z,30.6671,-87.9365,8.5,0.47,67.56,-9999.0,'1111122,1111122,1111122' 
DISL,ioos:station:DISL:MHPA:1,2010-12-03T09:30:00Z,30.6671,-87.9365,8.5,0.52,67.56,-9999.0,'1111122,1111122,1111122' 
DISL,ioos:station:DISL:MHPA:1,2010-12-03T10:00:00Z,30.6671,-87.9365,8.5,0.7,93.1,-9999.0,'1111122,1111122,1111122' 
DISL,ioos:station:DISL:MHPA:1,2010-12-03T10:30:00Z,30.6671,-87.9365,8.5,0.28,14.18,-9999.0,'1111122,1111122,1111122' 
DISL,ioos:station:DISL:MHPA:1,2010-12-03T11:00:00Z,30.6671,-87.9365,8.5,1.57,296.4,-9999.0,'1111122,1111122,1111122' 
DISL,ioos:station:DISL:MHPA:1,2010-12-03T11:30:00Z,30.6671,-87.9365,8.5,1.39,17.78,-9999.0,'1111122,1111122,1111122' 
DISL,ioos:station:DISL:MHPA:1,2010-12-03T12:00:00Z,30.6671,-87.9365,8.5,0.95,30.27,-9999.0,'1111122,1111122,1111122' 
DISL,ioos:station:DISL:MHPA:1,2010-12-03T12:30:00Z,30.6671,-87.9365,8.5,0.95,37.14,-9999.0,'1111122,1111122,1111122' 
DISL,ioos:station:DISL:MHPA:1,2010-12-03T13:00:00Z,30.6671,-87.9365,8.5,0.29,70.7,-9999.0,'1111122,1111122,1111122' 
DISL,ioos:station:DISL:MHPA:1,2010-12-03T13:30:00Z,30.6671,-87.9365,8.5,0.62,57.5,-9999.0,'1111122,1111122,1111122' 
DISL,ioos:station:DISL:MHPA:1,2010-12-03T14:00:00Z,30.6671,-87.9365,8.5,0.76,359.8,-9999.0,'1111122,1111122,1111122' 
DISL,ioos:station:DISL:MHPA:1,2010-12-03T14:30:00Z,30.6671,-87.9365,8.5,0.62,308.7,-9999.0,'1111122,1111122,1111122' 
DISL,ioos:station:DISL:MHPA:1,2010-12-03T15:00:00Z,30.6671,-87.9365,8.5,0.26,316.0,-9999.0,'1111122,1111122,1111122' 
DISL,ioos:station:DISL:MHPA:1,2010-12-03T15:30:00Z,30.6671,-87.9365,8.5,1.03,311.1,-9999.0,'1111122,1111122,1111122' 
DISL,ioos:station:DISL:MHPA:1,2010-12-03T16:00:00Z,30.6671,-87.9365,8.5,0.59,213.6,-9999.0,'1111122,1111122,1111122' 
DISL,ioos:station:DISL:MHPA:1,2010-12-03T16:30:00Z,30.6671,-87.9365,8.5,1.47,214.3,-9999.0,'1111122,1111122,1111122' 
DISL,ioos:station:DISL:MHPA:1,2010-12-03T17:00:00Z,30.6671,-87.9365,8.5,1.28,199.6,-9999.0,'1111122,1111122,1111122' 
DISL,ioos:station:DISL:MHPA:1,2010-12-03T17:30:00Z,30.6671,-87.9365,8.5,1.61,191.3,-9999.0,'1111122,1111122,1111122' 
DISL,ioos:station:DISL:MHPA:1,2010-12-03T18:00:00Z,30.6671,-87.9365,8.5,2.38,187.4,-9999.0,'1111122,1111122,1111122' 
DISL,ioos:station:DISL:MHPA:1,2010-12-03T18:30:00Z,30.6671,-87.9365,8.5,2.95,191.7,-9999.0,'1111122,1111122,1111122' 
DISL,ioos:station:DISL:MHPA:1,2010-12-03T19:00:00Z,30.6671,-87.9365,8.5,3.67,178.6,-9999.0,'1111122,1111122,1111122' 
DISL,ioos:station:DISL:MHPA:1,2010-12-03T19:30:00Z,30.6671,-87.9365,8.5,4.07,182.7,-9999.0,'1111122,1111122,1111122' 
DISL,ioos:station:DISL:MHPA:1,2010-12-03T20:00:00Z,30.6671,-87.9365,8.5,4.11,183.5,-9999.0,'1111122,1111122,1111122' 
DISL,ioos:station:DISL:MHPA:1,2010-12-03T20:30:00Z,30.6671,-87.9365,8.5,4.78,177.4,-9999.0,'1111122,1111122,1111122' 
DISL,ioos:station:DISL:MHPA:1,2010-12-03T21:00:00Z,30.6671,-87.9365,8.5,5.81,178.8,-9999.0,'1111122,1111122,1111122' 
DISL,ioos:station:DISL:MHPA:1,2010-12-03T21:30:00Z,30.6671,-87.9365,8.5,5.85,176.5,-9999.0,'1111122,1111122,1111122' 
DISL,ioos:station:DISL:MHPA:1,2010-12-03T22:00:00Z,30.6671,-87.9365,8.5,5.19,177.3,-9999.0,'1111122,1111122,1111122' 
DISL,ioos:station:DISL:MHPA:1,2010-12-03T22:30:00Z,30.6671,-87.9365,8.5,4.7,175.7,-9999.0,'1111122,1111122,1111122' 
DISL,ioos:station:DISL:MHPA:1,2010-12-03T23:00:00Z,30.6671,-87.9365,8.5,4.7,180.7,-9999.0,'1111122,1111122,1111122' 
DISL,ioos:station:DISL:MHPA:1,2010-12-03T23:30:00Z,30.6671,-87.9365,8.5,4.2,206.7,-9999.0,'1111122,1111122,1111122' 
DISL,ioos:station:DISL:MHPA:1,2010-12-04T00:00:00Z,30.6671,-87.9365,8.5,4.23,217.6,-9999.0,'1111122,1111122,1111122' 
DISL,ioos:station:DISL:MHPA:1,2010-12-04T00:30:00Z,30.6671,-87.9365,8.5,3.31,217.9,-9999.0,'1111122,1111122,1111122' 
DISL,ioos:station:DISL:MHPA:1,2010-12-04T01:00:00Z,30.6671,-87.9365,8.5,4.22,228.8,-9999.0,'1111122,1111122,1111122' 
DISL,ioos:station:DISL:MHPA:1,2010-12-04T01:30:00Z,30.6671,-87.9365,8.5,4.18,235.6,-9999.0,'1111122,1111122,1111122' 
DISL,ioos:station:DISL:MHPA:1,2010-12-04T02:00:00Z,30.6671,-87.9365,8.5,3.34,219.1,-9999.0,'1111122,1111122,1111122' 
DISL,ioos:station:DISL:MHPA:1,2010-12-04T02:30:00Z,30.6671,-87.9365,8.5,3.06,219.4,-9999.0,'1111122,1111122,1111122' 
DISL,ioos:station:DISL:MHPA:1,2010-12-04T03:00:00Z,30.6671,-87.9365,8.5,2.1,220.0,-9999.0,'1111122,1111122,1111122' 
DISL,ioos:station:DISL:MHPA:1,2010-12-04T03:30:00Z,30.6671,-87.9365,8.5,2.33,217.9,-9999.0,'1111122,1111122,1111122' 
DISL,ioos:station:DISL:MHPA:1,2010-12-04T04:00:00Z,30.6671,-87.9365,8.5,2.65,231.7,-9999.0,'1111122,1111122,1111122' 
DISL,ioos:station:DISL:MHPA:1,2010-12-04T04:30:00Z,30.6671,-87.9365,8.5,2.5,224.3,-9999.0,'1111122,1111122,1111122' 
DISL,ioos:station:DISL:MHPA:1,2010-12-04T05:00:00Z,30.6671,-87.9365,8.5,4.34,233.0,-9999.0,'1111122,1111122,1111122' 
DISL,ioos:station:DISL:MHPA:1,2010-12-04T05:30:00Z,30.6671,-87.9365,8.5,4.97,245.3,-9999.0,'1111122,1111122,1111122' 
DISL,ioos:station:DISL:MHPA:1,2010-12-04T06:00:00Z,30.6671,-87.9365,8.5,5.47,250.1,-9999.0,'1111122,1111122,1111122' 
DISL,ioos:station:DISL:MHPA:1,2010-12-04T06:30:00Z,30.6671,-87.9365,8.5,4.59,248.0,-9999.0,'1111122,1111122,1111122' 
DISL,ioos:station:DISL:MHPA:1,2010-12-04T07:00:00Z,30.6671,-87.9365,8.5,5.09,249.3,-9999.0,'1111122,1111122,1111122' 
DISL,ioos:station:DISL:MHPA:1,2010-12-04T07:30:00Z,30.6671,-87.9365,8.5,5.05,248.5,-9999.0,'1111122,1111122,1111122' 
DISL,ioos:station:DISL:MHPA:1,2010-12-04T08:00:00Z,30.6671,-87.9365,8.5,4.98,242.5,-9999.0,'1111122,1111122,1111122' 
DISL,ioos:station:DISL:MHPA:1,2010-12-04T08:30:00Z,30.6671,-87.9365,8.5,5.08,247.0,-9999.0,'1111122,1111122,1111122' 
DISL,ioos:station:DISL:MHPA:1,2010-12-04T09:00:00Z,30.6671,-87.9365,8.5,4.2,247.6,-9999.0,'1111122,1111122,1111122' 
DISL,ioos:station:DISL:MHPA:1,2010-12-04T09:30:00Z,30.6671,-87.9365,8.5,3.76,253.2,-9999.0,'1111122,1111122,1111122' 
DISL,ioos:station:DISL:MHPA:1,2010-12-04T10:00:00Z,30.6671,-87.9365,8.5,2.06,267.7,-9999.0,'1111122,1111122,1111122' 
DISL,ioos:station:DISL:MHPA:1,2010-12-04T10:30:00Z,30.6671,-87.9365,8.5,2.14,246.7,-9999.0,'1111122,1111122,1111122' 
DISL,ioos:station:DISL:MHPA:1,2010-12-04T11:00:00Z,30.6671,-87.9365,8.5,0.92,264.9,-9999.0,'1111122,1111122,1111122' 
DISL,ioos:station:DISL:MHPA:1,2010-12-04T11:30:00Z,30.6671,-87.9365,8.5,0.71,90.4,-9999.0,'1111122,1111122,1111122' 
DISL,ioos:station:DISL:MHPA:1,2010-12-04T12:00:00Z,30.6671,-87.9365,8.5,0.75,100.4,-9999.0,'1111122,1111122,1111122' 
DISL,ioos:station:DISL:MHPA:1,2010-12-04T12:30:00Z,30.6671,-87.9365,8.5,1.36,122.7,-9999.0,'1111122,1111122,1111122' 
DISL,ioos:station:DISL:MHPA:1,2010-12-04T13:00:00Z,30.6671,-87.9365,8.5,1.11,129.8,-9999.0,'1111122,1111122,1111122' 
DISL,ioos:station:DISL:MHPA:1,2010-12-04T13:30:00Z,30.6671,-87.9365,8.5,1.39,127.8,-9999.0,'1111122,1111122,1111122' 
DISL,ioos:station:DISL:MHPA:1,2010-12-04T14:00:00Z,30.6671,-87.9365,8.5,1.34,139.0,-9999.0,'1111122,1111122,1111122' 
DISL,ioos:station:DISL:MHPA:1,2010-12-04T14:30:00Z,30.6671,-87.9365,8.5,1.71,180.7,-9999.0,'1111122,1111122,1111122' 
DISL,ioos:station:DISL:MHPA:1,2010-12-04T15:00:00Z,30.6671,-87.9365,8.5,1.76,182.5,-9999.0,'1111122,1111122,1111122' 
DISL,ioos:station:DISL:MHPA:1,2010-12-04T15:30:00Z,30.6671,-87.9365,8.5,2.24,182.2,-9999.0,'1111122,1111122,1111122' 
DISL,ioos:station:DISL:MHPA:1,2010-12-04T16:00:00Z,30.6671,-87.9365,8.5,3.38,206.3,-9999.0,'1111122,1111122,1111122' 
DISL,ioos:station:DISL:MHPA:1,2010-12-04T16:30:00Z,30.6671,-87.9365,8.5,4.45,191.5,-9999.0,'1111122,1111122,1111122' 
DISL,ioos:station:DISL:MHPA:1,2010-12-04T17:00:00Z,30.6671,-87.9365,8.5,4.79,179.7,-9999.0,'1111122,1111122,1111122' 
DISL,ioos:station:DISL:MHPA:1,2010-12-04T17:30:00Z,30.6671,-87.9365,8.5,5.13,183.3,-9999.0,'1111122,1111122,1111122' 
DISL,ioos:station:DISL:MHPA:1,2010-12-04T18:00:00Z,30.6671,-87.9365,8.5,5.1,208.0,-9999.0,'1111122,1111122,1111122' 
DISL,ioos:station:DISL:MHPA:1,2010-12-04T18:30:00Z,30.6671,-87.9365,8.5,5.05,205.5,-9999.0,'1111122,1111122,1111122' 
DISL,ioos:station:DISL:MHPA:1,2010-12-04T19:00:00Z,30.6671,-87.9365,8.5,5.81,208.8,-9999.0,'1111122,1111122,1111122' 
DISL,ioos:station:DISL:MHPA:1,2010-12-04T19:30:00Z,30.6671,-87.9365,8.5,5.12,205.6,-9999.0,'1111122,1111122,1111122' 
DISL,ioos:station:DISL:MHPA:1,2010-12-04T20:00:00Z,30.6671,-87.9365,8.5,3.89,212.7,-9999.0,'1111122,1111122,1111122' 
DISL,ioos:station:DISL:MHPA:1,2010-12-04T20:30:00Z,30.6671,-87.9365,8.5,5.04,207.9,-9999.0,'1111122,1111122,1111122' 
DISL,ioos:station:DISL:MHPA:1,2010-12-04T21:00:00Z,30.6671,-87.9365,8.5,4.64,207.8,-9999.0,'1111122,1111122,1111122' 
DISL,ioos:station:DISL:MHPA:1,2010-12-04T21:30:00Z,30.6671,-87.9365,8.5,5.51,213.7,-9999.0,'1111122,1111122,1111122' 
DISL,ioos:station:DISL:MHPA:1,2010-12-04T22:00:00Z,30.6671,-87.9365,8.5,5.71,223.0,-9999.0,'1111122,1111122,1111122' 
DISL,ioos:station:DISL:MHPA:1,2010-12-04T22:30:00Z,30.6671,-87.9365,8.5,4.29,228.3,-9999.0,'1111122,1111122,1111122' 
DISL,ioos:station:DISL:MHPA:1,2010-12-04T23:00:00Z,30.6671,-87.9365,8.5,5.6,239.5,-9999.0,'1111122,1111122,1111122' 
DISL,ioos:station:DISL:MHPA:1,2010-12-04T23:30:00Z,30.6671,-87.9365,8.5,4.51,232.3,-9999.0,'1111122,1111122,1111122' 
DISL,ioos:station:DISL:MHPA:1,2010-12-05T00:00:00Z,30.6671,-87.9365,8.5,4.47,234.5,-9999.0,'1111122,1111122,1111122' 
DISL,ioos:station:DISL:MHPA:1,2010-12-05T00:30:00Z,30.6671,-87.9365,8.5,4.62,226.9,-9999.0,'1111122,1111122,1111122' 
DISL,ioos:station:DISL:MHPA:1,2010-12-05T01:00:00Z,30.6671,-87.9365,8.5,4.37,234.8,-9999.0,'1111122,1111122,1111122' 
DISL,ioos:station:DISL:MHPA:1,2010-12-05T01:30:00Z,30.6671,-87.9365,8.5,3.83,243.0,-9999.0,'1111122,1111122,1111122' 
DISL,ioos:station:DISL:MHPA:1,2010-12-05T02:00:00Z,30.6671,-87.9365,8.5,3.28,241.4,-9999.0,'1111122,1111122,1111122' 
DISL,ioos:station:DISL:MHPA:1,2010-12-05T02:30:00Z,30.6671,-87.9365,8.5,4.18,240.5,-9999.0,'1111122,1111122,1111122' 
DISL,ioos:station:DISL:MHPA:1,2010-12-05T03:00:00Z,30.6671,-87.9365,8.5,3.13,272.8,-9999.0,'1111122,1111122,1111122' 
DISL,ioos:station:DISL:MHPA:1,2010-12-05T03:30:00Z,30.6671,-87.9365,8.5,2.94,286.4,-9999.0,'1111122,1111122,1111122' 
DISL,ioos:station:DISL:MHPA:1,2010-12-05T04:00:00Z,30.6671,-87.9365,8.5,2.66,312.7,-9999.0,'1111122,1111122,1111122' 
DISL,ioos:station:DISL:MHPA:1,2010-12-05T04:30:00Z,30.6671,-87.9365,8.5,2.7,299.8,-9999.0,'1111122,1111122,1111122' 
DISL,ioos:station:DISL:MHPA:1,2010-12-05T05:00:00Z,30.6671,-87.9365,8.5,2.37,306.9,-9999.0,'1111122,1111122,1111122' 
DISL,ioos:station:DISL:MHPA:1,2010-12-05T05:30:00Z,30.6671,-87.9365,8.5,3.55,322.2,-9999.0,'1111122,1111122,1111122' 
DISL,ioos:station:DISL:MHPA:1,2010-12-05T06:00:00Z,30.6671,-87.9365,8.5,3.5,331.5,-9999.0,'1111122,1111122,1111122' 
DISL,ioos:station:DISL:MHPA:1,2010-12-05T06:30:00Z,30.6671,-87.9365,8.5,4.46,340.7,-9999.0,'1111122,1111122,1111122' 
DISL,ioos:station:DISL:MHPA:1,2010-12-05T07:00:00Z,30.6671,-87.9365,8.5,4.65,351.1,-9999.0,'1111122,1111122,1111122' 
DISL,ioos:station:DISL:MHPA:1,2010-12-05T07:30:00Z,30.6671,-87.9365,8.5,4.84,337.0,-9999.0,'1111122,1111122,1111122' 
DISL,ioos:station:DISL:MHPA:1,2010-12-05T08:00:00Z,30.6671,-87.9365,8.5,5.05,346.3,-9999.0,'1111122,1111122,1111122' 
DISL,ioos:station:DISL:MHPA:1,2010-12-05T08:30:00Z,30.6671,-87.9365,8.5,4.14,348.0,-9999.0,'1111122,1111122,1111122' 
DISL,ioos:station:DISL:MHPA:1,2010-12-05T09:00:00Z,30.6671,-87.9365,8.5,5.25,346.5,-9999.0,'1111122,1111122,1111122' 
DISL,ioos:station:DISL:MHPA:1,2010-12-05T09:30:00Z,30.6671,-87.9365,8.5,5.95,346.7,-9999.0,'1111122,1111122,1111122' 
DISL,ioos:station:DISL:MHPA:1,2010-12-05T10:00:00Z,30.6671,-87.9365,8.5,6.14,352.5,-9999.0,'1111122,1111122,1111122' 
DISL,ioos:station:DISL:MHPA:1,2010-12-05T10:30:00Z,30.6671,-87.9365,8.5,6.19,346.5,-9999.0,'1111122,1111122,1111122' 
DISL,ioos:station:DISL:MHPA:1,2010-12-05T11:00:00Z,30.6671,-87.9365,8.5,6.22,347.4,-9999.0,'1111122,1111122,1111122' 
DISL,ioos:station:DISL:MHPA:1,2010-12-05T11:30:00Z,30.6671,-87.9365,8.5,6.82,348.7,-9999.0,'1111122,1111122,1111122' 
DISL,ioos:station:DISL:MHPA:1,2010-12-05T12:00:00Z,30.6671,-87.9365,8.5,5.89,353.5,-9999.0,'1111122,1111122,1111122' 
DISL,ioos:station:DISL:MHPA:1,2010-12-05T12:30:00Z,30.6671,-87.9365,8.5,5.65,352.4,-9999.0,'1111122,1111122,1111122' 
DISL,ioos:station:DISL:MHPA:1,2010-12-05T13:00:00Z,30.6671,-87.9365,8.5,6.36,357.5,-9999.0,'1111122,1111122,1111122' 
DISL,ioos:station:DISL:MHPA:1,2010-12-05T13:30:00Z,30.6671,-87.9365,8.5,5.71,349.1,-9999.0,'1111122,1111122,1111122' 
DISL,ioos:station:DISL:MHPA:1,2010-12-05T14:00:00Z,30.6671,-87.9365,8.5,6.21,4.341,-9999.0,'1111122,1111122,1111122' 
DISL,ioos:station:DISL:MHPA:1,2010-12-05T14:30:00Z,30.6671,-87.9365,8.5,6.4,5.185,-9999.0,'1111122,1111122,1111122' 
DISL,ioos:station:DISL:MHPA:1,2010-12-05T15:00:00Z,30.6671,-87.9365,8.5,6.54,1.662,-9999.0,'1111122,1111122,1111122' 
DISL,ioos:station:DISL:MHPA:1,2010-12-05T15:30:00Z,30.6671,-87.9365,8.5,6.05,352.9,-9999.0,'1111122,1111122,1111122' 
DISL,ioos:station:DISL:MHPA:1,2010-12-05T16:00:00Z,30.6671,-87.9365,8.5,6.31,5.019,-9999.0,'1111122,1111122,1111122' 
DISL,ioos:station:DISL:MHPA:1,2010-12-05T16:30:00Z,30.6671,-87.9365,8.5,4.89,0.389,-9999.0,'1111122,1111122,1111122' 
DISL,ioos:station:DISL:MHPA:1,2010-12-05T17:00:00Z,30.6671,-87.9365,8.5,5.59,357.0,-9999.0,'1111122,1111122,1111122' 
DISL,ioos:station:DISL:MHPA:1,2010-12-05T17:30:00Z,30.6671,-87.9365,8.5,5.02,3.767,-9999.0,'1111122,1111122,1111122' 
DISL,ioos:station:DISL:MHPA:1,2010-12-05T18:00:00Z,30.6671,-87.9365,8.5,5.9,354.7,-9999.0,'1111122,1111122,1111122' 
DISL,ioos:station:DISL:MHPA:1,2010-12-05T18:30:00Z,30.6671,-87.9365,8.5,6.48,341.6,-9999.0,'1111122,1111122,1111122' 
DISL,ioos:station:DISL:MHPA:1,2010-12-05T19:00:00Z,30.6671,-87.9365,8.5,5.8,4.026,-9999.0,'1111122,1111122,1111122' 
DISL,ioos:station:DISL:MHPA:1,2010-12-05T19:30:00Z,30.6671,-87.9365,8.5,5.1,3.876,-9999.0,'1111122,1111122,1111122' 
DISL,ioos:station:DISL:MHPA:1,2010-12-05T20:00:00Z,30.6671,-87.9365,8.5,5.91,350.0,-9999.0,'1111122,1111122,1111122' 
DISL,ioos:station:DISL:MHPA:1,2010-12-05T20:30:00Z,30.6671,-87.9365,8.5,6.15,350.0,-9999.0,'1111122,1111122,1111122' 
DISL,ioos:station:DISL:MHPA:1,2010-12-05T21:00:00Z,30.6671,-87.9365,8.5,5.82,334.4,-9999.0,'1111122,1111122,1111122' 
DISL,ioos:station:DISL:MHPA:1,2010-12-05T21:30:00Z,30.6671,-87.9365,8.5,5.74,349.1,-9999.0,'1111122,1111122,1111122' 
DISL,ioos:station:DISL:MHPA:1,2010-12-05T22:00:00Z,30.6671,-87.9365,8.5,4.74,356.2,-9999.0,'1111122,1111122,1111122' 
DISL,ioos:station:DISL:MHPA:1,2010-12-05T22:30:00Z,30.6671,-87.9365,8.5,4.94,341.6,-9999.0,'1111122,1111122,1111122' 
DISL,ioos:station:DISL:MHPA:1,2010-12-05T23:00:00Z,30.6671,-87.9365,8.5,5.15,345.9,-9999.0,'1111122,1111122,1111122' 
DISL,ioos:station:DISL:MHPA:1,2010-12-05T23:30:00Z,30.6671,-87.9365,8.5,4.62,351.4,-9999.0,'1111122,1111122,1111122' 
DISL,ioos:station:DISL:MHPA:1,2010-12-06T00:00:00Z,30.6671,-87.9365,8.5,3.52,346.4,-9999.0,'1111122,1111122,1111122' 
DISL,ioos:station:DISL:MHPA:1,2010-12-06T00:30:00Z,30.6671,-87.9365,8.5,3.09,351.0,-9999.0,'1111122,1111122,1111122' 
DISL,ioos:station:DISL:MHPA:1,2010-12-06T01:00:00Z,30.6671,-87.9365,8.5,2.66,337.5,-9999.0,'1111122,1111122,1111122' 
DISL,ioos:station:DISL:MHPA:1,2010-12-06T01:30:00Z,30.6671,-87.9365,8.5,4.69,346.0,-9999.0,'1111122,1111122,1111122' 
DISL,ioos:station:DISL:MHPA:1,2010-12-06T02:00:00Z,30.6671,-87.9365,8.5,5.03,353.1,-9999.0,'1111122,1111122,1111122' 
DISL,ioos:station:DISL:MHPA:1,2010-12-06T02:30:00Z,30.6671,-87.9365,8.5,4.46,353.5,-9999.0,'1111122,1111122,1111122' 
DISL,ioos:station:DISL:MHPA:1,2010-12-06T03:00:00Z,30.6671,-87.9365,8.5,5.27,340.5,-9999.0,'1111122,1111122,1111122' 
DISL,ioos:station:DISL:MHPA:1,2010-12-06T03:30:00Z,30.6671,-87.9365,8.5,5.18,342.5,-9999.0,'1111122,1111122,1111122' 
DISL,ioos:station:DISL:MHPA:1,2010-12-06T04:00:00Z,30.6671,-87.9365,8.5,4.85,343.7,-9999.0,'1111122,1111122,1111122' 
DISL,ioos:station:DISL:MHPA:1,2010-12-06T04:30:00Z,30.6671,-87.9365,8.5,3.47,351.9,-9999.0,'1111122,1111122,1111122' 